This is the latest recevied weather packets stored in our database for station/object IK3ZGB. If no packets are shown the sender has not sent any weather packets the latest 10 day(s).
| Time | Temp. | Humidity | Pressure | Rain* | Wind** | Luminosity | Snow |
|---|---|---|---|---|---|---|---|
| 1777903124 | 26.11° C | 50% | 1015.4 hPa | - | - | - | - |
| 1777902524 | 26.11° C | 51% | 1015.7 hPa | - | - | - | - |
| 1777901925 | 26.11° C | 51% | 1015.8 hPa | - | - | - | - |
| 1777901325 | 25.56° C | 51% | 1015.8 hPa | - | - | - | - |
| 1777900724 | 25.56° C | 51% | 1015.7 hPa | - | - | - | - |
| 1777900125 | 25.56° C | 50% | 1016 hPa | - | - | - | - |
| 1777899524 | 25.56° C | 50% | 1016 hPa | - | - | - | - |
| 1777898926 | 26.11° C | 49% | 1016.3 hPa | - | - | - | - |
| 1777898325 | 25.56° C | 49% | 1016.3 hPa | - | - | - | - |
| 1777897725 | 26.11° C | 50% | 1016.2 hPa | - | - | - | - |
| 1777897124 | 25.56° C | 51% | 1016.3 hPa | - | - | - | - |
| 1777896525 | 26.11° C | 52% | 1016.7 hPa | - | - | - | - |
| 1777895924 | 25° C | 51% | 1016.7 hPa | - | - | - | - |
| 1777895325 | 25° C | 51% | 1016.8 hPa | - | - | - | - |
| 1777894726 | 24.44° C | 51% | 1017 hPa | - | - | - | - |
| 1777894124 | 25.56° C | 51% | 1016.9 hPa | - | - | - | - |
| 1777893524 | 25° C | 51% | 1017.3 hPa | - | - | - | - |
| 1777892924 | 24.44° C | 50% | 1017.2 hPa | - | - | - | - |
| 1777892324 | 24.44° C | 51% | 1017.3 hPa | - | - | - | - |
| 1777891724 | 24.44° C | 51% | 1017.4 hPa | - | - | - | - |
| 1777891127 | 25.56° C | 50% | 1017.5 hPa | - | - | - | - |
| 1777890524 | 25° C | 52% | 1017.6 hPa | - | - | - | - |
| 1777889925 | 25° C | 50% | 1017.7 hPa | - | - | - | - |
| 1777889325 | 23.89° C | 50% | 1017.8 hPa | - | - | - | - |
| 1777888725 | 25° C | 50% | 1018 hPa | - | - | - | - |
* Rain since midnight (hover to see other rain measurements)
** Current wind speed in m/s (hover to see current wind gust speed)